Location: Seven Kings
(51.5667°N, 0.1000°E)
Time: 02:57:02
(UTC+00:00)

Cosmos 1689 Rocket - Pass Details

Date: 29 October 2020
Orbit: 360 x 375 km, 97.5° (Epoch: 24 November)

Event Time Altitude Azimuth Distance (km) Brightness Sun altitude
Exits shadow 18:20:25 17° 15° (NNE) 1,043 4.1 -16.5°
Maximum altitude 18:22:34 87° 101° (E) 369 1.8 -16.8°
Drops below altitude 10° 18:25:26 10° 194° (SSW) 1,345 5.0 -17.3°
Sets 18:27:21 0° 195° (SSW) 2,187 6.1 -17.6°
